Date String (YYYY-MM-DD hh:mm:ss) UTC,Instrument flags,Ambient pressure (hPa),Sample flow (lpm),Bypass flow (lpm),Sample temperature (°C),Ambient temperature (°C),ASC tube jacket temperature (°C),LED temperature (°C),Box temperature (°C),Sample RH (%),Span deviation,Mass concentration (μg/m³),Mass concentration (μg/m³),Mass concentration (μg/m³)
DateTimeUTC,F1_M11,P_M11,Q1_M11,Q2_M11,T1_M11,T2_M11,T3_M11,T4_M11,T5_M11,U1_M11,ZSPAN_M11,X0_M11,X2_M11,X1_M11
2022-02-26 08:00:00,,0829.9,5.00,0.00,21.8,21.2,00.0,30.9,23.4,06.6,0000.3,0014.18,0009.46,0008.86
2022-02-26 08:01:00,,0829.9,5.00,0.00,21.7,21.1,00.0,30.9,23.3,06.6,0000.4,0014.25,0009.50,0008.90
2022-02-26 08:02:00,,0829.9,4.99,0.00,21.7,21.0,00.0,30.9,23.2,06.6,0000.2,0014.23,0009.58,0008.96
2022-02-26 08:03:00,,0830.0,5.01,0.00,21.8,21.6,00.0,30.9,23.4,06.6,0000.2,0013.97,0009.59,0008.95
2022-02-26 08:04:00,,0830.0,5.00,0.00,21.9,22.3,00.0,30.9,23.7,06.5,0000.2,0013.95,0009.58,0008.92
2022-02-26 08:05:00,,0830.0,5.01,0.00,22.0,22.9,00.0,31.0,23.9,06.4,0000.3,0014.02,0009.64,0008.99
2022-02-26 08:06:00,,0830.0,5.00,0.00,22.1,22.6,00.0,31.0,23.9,06.4,0000.3,0013.88,0009.74,0009.06
2022-02-26 08:07:00,,0830.0,4.99,0.00,22.0,22.3,00.0,31.0,23.8,06.5,-000.0,0014.08,0009.86,0009.16
2022-02-26 08:08:00,,0830.0,5.00,0.00,22.0,21.9,00.0,31.0,23.7,06.6,-000.4,0014.11,0009.92,0009.24
2022-02-26 08:09:00,,0830.0,5.00,0.00,21.9,21.5,00.0,30.9,23.6,06.7,-000.2,0014.11,0009.98,0009.32
2022-02-26 08:10:00,,0829.9,5.00,0.00,21.9,21.3,00.0,30.9,23.4,06.7,-000.6,0014.36,0010.12,0009.42
2022-02-26 08:11:00,,0829.9,5.00,0.00,21.8,21.1,00.0,30.9,23.3,06.9,-000.9,0014.80,0010.34,0009.57
2022-02-26 08:12:00,,0829.9,5.00,0.00,21.7,20.9,00.0,30.9,23.2,07.0,-000.8,0015.25,0010.60,0009.73
2022-02-26 08:13:00,,0830.0,5.01,0.00,21.7,21.4,00.0,30.9,23.3,07.0,-000.6,0015.84,0010.84,0009.86
2022-02-26 08:14:00,,0830.0,5.00,0.00,21.9,22.2,00.0,30.9,23.6,06.9,-000.8,0016.67,0011.08,0010.05
2022-02-26 08:15:00,,0829.9,5.01,0.00,22.0,22.8,00.0,30.9,23.9,06.9,-000.9,0017.68,0011.36,0010.24
2022-02-26 08:16:00,,0829.9,5.00,0.00,22.0,22.6,00.0,31.0,23.9,07.0,-000.7,0018.09,0011.48,0010.31
2022-02-26 08:17:00,,0829.9,4.99,0.00,22.0,22.2,00.0,31.0,23.8,06.9,-000.5,0018.52,0011.53,0010.34
2022-02-26 08:18:00,,0830.0,4.99,0.00,22.0,21.9,00.0,30.9,23.7,07.0,-000.4,0018.86,0011.59,0010.36
2022-02-26 08:19:00,,0829.9,5.00,0.00,21.9,21.6,00.0,30.9,23.5,07.1,-000.1,0019.42,0011.66,0010.38
2022-02-26 08:20:00,,0829.9,5.00,0.00,21.8,21.4,00.0,30.9,23.4,07.1,-000.1,0020.03,0011.76,0010.41
2022-02-26 08:21:00,,0829.9,5.01,0.00,21.8,21.2,00.0,30.9,23.3,07.2,-000.1,0020.16,0011.76,0010.40
2022-02-26 08:22:00,,0829.9,5.00,0.00,21.7,21.0,00.0,30.9,23.2,07.2,0000.0,0019.92,0011.68,0010.37
2022-02-26 08:23:00,,0829.9,5.00,0.00,21.6,21.0,00.0,30.8,23.2,07.3,-000.2,0019.82,0011.61,0010.34
2022-02-26 08:24:00,,0829.9,4.99,0.00,21.7,21.6,00.0,30.8,23.3,07.3,-000.2,0019.38,0011.49,0010.36
2022-02-26 08:25:00,,0830.0,5.00,0.00,21.9,22.4,00.0,30.9,23.7,07.2,-000.0,0018.78,0011.46,0010.37
2022-02-26 08:26:00,,0830.0,5.01,0.00,22.0,22.7,00.0,30.9,23.8,07.2,0000.3,0018.53,0011.46,0010.39
2022-02-26 08:27:00,,0830.0,4.99,0.00,22.0,22.4,00.0,30.9,23.7,07.2,0000.3,0018.34,0011.48,0010.45
2022-02-26 08:28:00,,0830.0,4.99,0.00,21.9,22.0,00.0,30.9,23.6,07.2,0000.3,0018.77,0011.55,0010.52
2022-02-26 08:29:00,,0830.0,5.00,0.00,21.8,21.7,00.0,30.9,23.4,07.3,0000.4,0019.11,0011.65,0010.59
2022-02-26 08:30:00,,0830.0,5.00,0.00,21.8,21.4,00.0,30.9,23.3,07.3,0000.9,0019.15,0011.75,0010.66
2022-02-26 08:31:00,,0830.0,4.99,0.00,21.7,21.2,00.0,30.8,23.2,07.4,0001.3,0019.10,0011.82,0010.74
2022-02-26 08:32:00,,0830.0,5.00,0.00,21.6,21.0,00.0,30.8,23.1,07.4,0001.7,0019.12,0011.90,0010.82
2022-02-26 08:33:00,,0830.0,5.01,0.00,21.6,21.2,00.0,30.8,23.1,07.4,0001.6,0019.97,0012.02,0010.86
2022-02-26 08:34:00,,0829.9,4.99,0.00,21.7,21.9,00.0,30.8,23.4,07.4,0001.9,0021.07,0012.18,0010.88
2022-02-26 08:35:00,,0829.9,5.00,0.00,21.8,22.7,00.0,30.9,23.7,07.4,0001.8,0021.98,0012.30,0010.91
2022-02-26 08:36:00,,0829.8,5.00,0.00,22.0,23.1,00.0,30.9,23.9,07.3,0001.7,0022.83,0012.45,0010.98
2022-02-26 08:37:00,,0829.8,5.00,0.00,22.0,22.7,00.0,30.9,23.9,07.3,0001.1,0023.19,0012.56,0011.06
2022-02-26 08:38:00,,0829.8,4.99,0.00,22.0,22.3,00.0,30.9,23.8,07.3,0000.9,0023.52,0012.64,0011.12
2022-02-26 08:39:00,,0829.8,5.01,0.00,22.0,22.0,00.0,30.9,23.7,07.4,0001.3,0023.11,0012.68,0011.15
2022-02-26 08:40:00,,0829.8,5.00,0.00,21.9,21.7,00.0,30.9,23.6,07.4,0001.3,0023.74,0012.70,0011.17
2022-02-26 08:41:00,,0829.8,5.01,0.00,21.9,21.5,00.0,30.9,23.5,07.4,0000.8,0023.89,0012.73,0011.22
2022-02-26 08:42:00,,0829.8,5.00,0.00,21.8,21.3,00.0,30.9,23.4,07.5,0000.1,0024.62,0012.75,0011.27
2022-02-26 08:43:00,,0829.8,4.99,0.00,21.7,21.1,00.0,30.9,23.3,07.5,-000.1,0024.63,0012.75,0011.25
2022-02-26 08:44:00,,0829.8,4.99,0.00,21.7,20.9,00.0,30.8,23.2,07.5,0000.2,0024.29,0012.79,0011.28
2022-02-26 08:45:00,,0829.8,5.00,0.00,21.6,21.0,00.0,30.8,23.2,07.5,0000.2,0023.47,0012.80,0011.38
2022-02-26 08:46:00,,0829.8,5.02,0.00,21.7,21.8,00.0,30.8,23.4,07.5,0000.3,0022.82,0012.86,0011.51
2022-02-26 08:47:00,,0829.8,5.00,0.00,21.9,22.6,00.0,30.9,23.7,07.4,0000.4,0022.44,0012.91,0011.62
2022-02-26 08:48:00,,0829.7,4.99,0.00,22.0,22.8,00.0,30.9,23.9,07.4,0000.5,0021.93,0013.03,0011.78
2022-02-26 08:49:00,,0829.6,5.00,0.00,22.1,22.5,00.0,30.9,23.9,07.4,0000.3,0021.93,0013.21,0011.98
2022-02-26 08:50:00,,0829.6,5.00,0.00,22.0,22.3,00.0,30.9,23.9,07.4,-000.1,0021.99,0013.34,0012.13
2022-02-26 08:51:00,,0829.6,5.01,0.00,22.0,22.0,00.0,30.9,23.8,07.4,-000.4,0021.28,0013.46,0012.27
2022-02-26 08:52:00,,0829.6,4.98,0.00,22.0,21.7,00.0,30.9,23.7,07.3,-000.5,0020.83,0013.54,0012.40
2022-02-26 08:53:00,,0829.5,5.00,0.00,22.0,21.5,00.0,30.9,23.6,07.4,-000.5,0019.68,0013.60,0012.50
2022-02-26 08:54:00,,0829.5,5.00,0.00,21.9,21.3,00.0,30.9,23.5,07.4,-000.5,0019.82,0013.76,0012.66
2022-02-26 08:55:00,,0829.5,5.00,0.00,21.8,20.9,00.0,30.9,23.5,07.4,-000.6,0020.26,0013.83,0012.82
2022-02-26 08:56:00,,0829.5,5.00,0.00,21.8,20.6,00.0,30.9,23.3,07.4,-000.8,0020.16,0013.93,0012.96
2022-02-26 08:57:00,,0829.5,4.99,0.00,21.7,20.9,00.0,30.8,23.3,07.5,-001.0,0020.28,0014.04,0013.05
2022-02-26 08:58:00,,0829.5,4.99,0.00,21.8,21.8,00.0,30.9,23.5,07.5,-000.9,0020.06,0014.09,0013.12
2022-02-26 08:59:00,,0829.5,5.01,0.00,22.0,22.5,00.0,30.9,23.8,07.4,-001.0,0019.99,0014.09,0013.13
